Weather History for Woodward, OK

Change the Weather History Date:

Monday, April 22, 2013

  Actual Average (KGAG) Record (KGAG)
Temperature  
Mean Temperature 58 °F -  
Max Temperature 80 °F 73 °F 98 °F (1953)
Min Temperature 37 °F 46 °F 28 °F (1959)
Degree Days  
Heating Degree Days 6    
Growing Degree Days 8 (Base 50)    
Moisture  
Dew Point 46 °F    
Average Humidity 66    
Maximum Humidity 87    
Minimum Humidity 26    
Precipitation  
Precipitation 0.11 in - - ()
Sea Level Pressure  
Sea Level Pressure 29.93 in    
Wind  
Wind Speed 17 mph (SSE)    
Max Wind Speed 31 mph    
Max Gust Speed 41 mph    
Visibility 10 miles    
Events Rain    
Averages and records for this station are not official NWS values.
T = Trace of Precipitation, MM = Missing Value Source: NWS Daily Summary

Daily Weather History Graph

Daily Weather History Graph

Search for Another Location

Airport:

Trip Planner

Search our weather history database for the weather conditions in past years. The results will help you decide how hot, cold, wet, or windy it might be!

Date:

Astronomy

Apr. 22, 2013 Rise Set
Actual Time 6:55 AM CDT 8:18 PM CDT
Civil Twilight 6:28 AM CDT 8:45 PM CDT
Nautical Twilight 5:55 AM CDT 9:18 PM CDT
Astronomical Twilight 5:21 AM CDT 9:52 PM CDT
Moon 5:13 PM CDT (4/22) 4:44 AM CDT (4/22)
Length of Visible Light 14h 17m
Length of Day
13h 23m
Waxing Gibbous, 88% of the Moon is Illuminated
Apr 22
Waxing Gibbous
Apr 25
Full
May 2
Last Quarter
May 9
New
May 17
First Quarter

Hourly Weather History & Observations

Time (CDT) Temp. Windchill Dew Point Humidity Pressure Visibility Wind Dir Wind Speed Gust Speed Precip Events Conditions
12:15 AM 55.4 °F - 46.4 °F 72% 30.05 in 10.0 mi SE 15.0 mph 21.9 mph N/A   Clear
12:35 AM 55.4 °F - 46.4 °F 72% 30.03 in 10.0 mi SE 20.7 mph 26.5 mph N/A   Clear
12:55 AM 55.4 °F - 46.4 °F 72% 30.03 in 10.0 mi SSE 21.9 mph 27.6 mph N/A   Clear
1:15 AM 55.4 °F - 46.4 °F 72% 30.04 in 10.0 mi SSE 19.6 mph 27.6 mph N/A   Clear
1:35 AM 55.4 °F - 46.4 °F 72% 30.04 in 10.0 mi SSE 19.6 mph 26.5 mph N/A   Clear
1:55 AM 55.4 °F - 46.4 °F 72% 30.05 in 10.0 mi SSE 19.6 mph 25.3 mph N/A   Clear
2:15 AM 55.4 °F - 46.4 °F 72% 30.04 in 10.0 mi SSE 18.4 mph 21.9 mph N/A   Clear
2:35 AM 53.6 °F - 46.4 °F 77% 30.03 in 10.0 mi SSE 13.8 mph 20.7 mph N/A   Clear
2:55 AM 53.6 °F - 46.4 °F 77% 30.03 in 10.0 mi SSE 11.5 mph 18.4 mph N/A   Clear
3:15 AM 53.6 °F - 46.4 °F 77% 30.03 in 10.0 mi SE 11.5 mph - N/A   Clear
3:35 AM 53.6 °F - 46.4 °F 77% 30.03 in 10.0 mi SSE 12.7 mph 19.6 mph N/A   Clear
3:55 AM 53.6 °F - 46.4 °F 77% 30.02 in 10.0 mi SSE 8.1 mph - N/A   Clear
4:15 AM 53.6 °F - 46.4 °F 77% 30.02 in 10.0 mi SSE 9.2 mph - N/A   Clear
4:35 AM 53.6 °F - 46.4 °F 77% 30.01 in 10.0 mi SSE 12.7 mph 17.3 mph N/A   Clear
4:55 AM 53.6 °F - 46.4 °F 77% 30.00 in 10.0 mi SSE 15.0 mph 19.6 mph N/A   Clear
5:15 AM 53.6 °F - 46.4 °F 77% 29.99 in 10.0 mi SSE 19.6 mph - N/A   Scattered Clouds
5:35 AM 53.6 °F - 46.4 °F 77% 29.99 in 10.0 mi SSE 20.7 mph 27.6 mph N/A   Overcast
5:55 AM 53.6 °F - 46.4 °F 77% 29.98 in 10.0 mi SSE 19.6 mph 26.5 mph N/A   Overcast
6:15 AM 53.6 °F - 46.4 °F 77% 29.97 in 10.0 mi SSE 20.7 mph 26.5 mph N/A   Overcast
6:35 AM 53.6 °F - 46.4 °F 77% 29.97 in 10.0 mi SSE 19.6 mph 25.3 mph N/A   Overcast
6:55 AM 53.6 °F - 44.6 °F 72% 29.97 in 10.0 mi SSE 12.7 mph - N/A   Overcast
7:15 AM 51.8 °F - 44.6 °F 76% 29.98 in 10.0 mi SSE 11.5 mph 17.3 mph N/A   Mostly Cloudy
7:35 AM 53.6 °F - 44.6 °F 72% 29.97 in 10.0 mi SE 17.3 mph - N/A   Overcast
7:55 AM 53.6 °F - 46.4 °F 77% 29.97 in 10.0 mi SSE 17.3 mph 21.9 mph N/A   Mostly Cloudy
8:15 AM 53.6 °F - 46.4 °F 77% 29.97 in 10.0 mi SSE 19.6 mph 24.2 mph N/A   Mostly Cloudy
8:35 AM 55.4 °F - 46.4 °F 72% 29.95 in 10.0 mi SSE 20.7 mph 27.6 mph N/A   Overcast
8:55 AM 55.4 °F - 46.4 °F 72% 29.95 in 10.0 mi SSE 23.0 mph 28.8 mph N/A   Mostly Cloudy
9:15 AM 55.4 °F - 46.4 °F 72% 29.94 in 10.0 mi SSE 20.7 mph 26.5 mph N/A   Overcast
9:35 AM 57.2 °F - 48.2 °F 72% 29.94 in 10.0 mi SSE 19.6 mph - N/A   Overcast
9:55 AM 57.2 °F - 48.2 °F 72% 29.94 in 10.0 mi South 18.4 mph 26.5 mph N/A   Overcast
10:15 AM 59.0 °F - 50.0 °F 72% 29.94 in 10.0 mi South 16.1 mph 27.6 mph N/A   Overcast
10:35 AM 59.0 °F - 50.0 °F 72% 29.94 in 10.0 mi South 19.6 mph 26.5 mph N/A   Overcast
10:55 AM 60.8 °F - 50.0 °F 68% 29.93 in 10.0 mi South 21.9 mph 26.5 mph N/A   Overcast
11:15 AM 62.6 °F - 50.0 °F 63% 29.92 in 10.0 mi South 21.9 mph 28.8 mph N/A   Overcast
11:35 AM 64.4 °F - 50.0 °F 59% 29.91 in 10.0 mi SSW 19.6 mph 27.6 mph N/A   Mostly Cloudy
11:55 AM 66.2 °F - 50.0 °F 56% 29.91 in 10.0 mi South 17.3 mph 24.2 mph N/A   Scattered Clouds
12:15 PM 68.0 °F - 50.0 °F 52% 29.90 in 10.0 mi SSW 18.4 mph 21.9 mph N/A   Clear
12:35 PM 69.8 °F - 50.0 °F 49% 29.89 in 10.0 mi South 15.0 mph 24.2 mph N/A   Clear
12:55 PM 71.6 °F - 50.0 °F 46% 29.88 in 10.0 mi South 15.0 mph 23.0 mph N/A   Clear
1:15 PM 71.6 °F - 48.2 °F 43% 29.87 in 10.0 mi South 16.1 mph 19.6 mph N/A   Clear
1:35 PM 73.4 °F - 46.4 °F 38% 29.86 in 10.0 mi SW 15.0 mph 23.0 mph N/A   Clear
1:55 PM 75.2 °F - 46.4 °F 36% 29.85 in 10.0 mi SSW 13.8 mph 24.2 mph N/A   Clear
2:15 PM 77.0 °F - 46.4 °F 34% 29.85 in 10.0 mi SSW 12.7 mph 21.9 mph N/A   Clear
2:35 PM 77.0 °F - 44.6 °F 32% 29.84 in 10.0 mi SW 9.2 mph 18.4 mph N/A   Clear
2:55 PM 78.8 °F - 44.6 °F 30% 29.83 in 10.0 mi SSW 10.4 mph 17.3 mph N/A   Clear
3:15 PM 78.8 °F - 44.6 °F 30% 29.83 in 10.0 mi South 10.4 mph - N/A   Clear
3:35 PM 80.6 °F - 42.8 °F 26% 29.81 in 10.0 mi SSW 6.9 mph - N/A   Clear
3:55 PM 80.6 °F - 42.8 °F 26% 29.80 in 10.0 mi South 8.1 mph 16.1 mph N/A   Clear
4:15 PM 80.6 °F - 46.4 °F 30% 29.80 in 10.0 mi South 8.1 mph - N/A   Scattered Clouds
4:35 PM 78.8 °F - 51.8 °F 39% 29.79 in 10.0 mi ESE 13.8 mph 17.3 mph N/A   Overcast
4:55 PM 78.8 °F - 51.8 °F 39% 29.78 in 10.0 mi East 9.2 mph - N/A   Mostly Cloudy
5:15 PM 77.0 °F - 51.8 °F 41% 29.78 in 10.0 mi East 11.5 mph - N/A   Scattered Clouds
5:35 PM 78.8 °F - 53.6 °F 42% 29.78 in 10.0 mi ENE 12.7 mph - N/A   Mostly Cloudy
5:55 PM 77.0 °F - 53.6 °F 44% 29.77 in 10.0 mi ENE 13.8 mph 18.4 mph N/A   Mostly Cloudy
6:15 PM 75.2 °F - 53.6 °F 47% 29.77 in 10.0 mi ENE 10.4 mph - N/A   Mostly Cloudy
6:35 PM 73.4 °F - 59.0 °F 61% 29.78 in 5.0 mi East 11.5 mph - 0.02 in Rain Heavy Rain
6:55 PM 69.8 °F - 59.0 °F 68% 29.76 in 10.0 mi NE 12.7 mph 16.1 mph 0.02 in   Mostly Cloudy
7:15 PM 68.0 °F - 60.8 °F 78% 29.78 in 7.0 mi ENE 12.7 mph - 0.05 in Rain Light Rain
7:35 PM 68.0 °F - 60.8 °F 78% 29.80 in 10.0 mi East 10.4 mph - 0.06 in Rain Light Rain
7:55 PM 51.8 °F - 46.4 °F 82% 29.86 in 10.0 mi North 29.9 mph 41.4 mph 0.08 in Rain Light Rain
8:15 PM 48.2 °F - 42.8 °F 82% 29.90 in 10.0 mi North 31.1 mph 41.4 mph N/A   Overcast
8:35 PM 46.4 °F 37.2 °F 42.8 °F 87% 29.92 in 10.0 mi North 29.9 mph 36.8 mph 0.01 in Rain Rain
8:55 PM 44.6 °F 36.4 °F 41.0 °F 87% 29.95 in 10.0 mi North 20.7 mph 33.4 mph 0.01 in Rain Light Rain
9:15 PM 42.8 °F 33.8 °F 39.2 °F 87% 29.96 in 10.0 mi North 21.9 mph 31.1 mph N/A   Overcast
9:35 PM 42.8 °F 33.5 °F 37.4 °F 81% 29.98 in 10.0 mi North 23.0 mph 31.1 mph N/A   Overcast
9:55 PM 41.0 °F 31.4 °F 37.4 °F 87% 30.00 in 10.0 mi North 21.9 mph 29.9 mph N/A   Overcast
10:15 PM 41.0 °F 30.9 °F 35.6 °F 81% 30.00 in 10.0 mi North 24.2 mph 33.4 mph N/A   Overcast
10:35 PM 39.2 °F 27.6 °F 35.6 °F 87% 30.01 in 10.0 mi North 28.8 mph 34.5 mph N/A   Overcast
10:55 PM 39.2 °F 28.3 °F 35.6 °F 87% 30.03 in 10.0 mi North 25.3 mph 33.4 mph N/A   Overcast
11:15 PM 37.4 °F 25.0 °F 33.8 °F 87% 30.03 in 10.0 mi North 29.9 mph 38.0 mph N/A   Overcast
11:35 PM 37.4 °F 25.0 °F 33.8 °F 87% 30.04 in 10.0 mi North 29.9 mph 34.5 mph N/A   Overcast
11:55 PM 37.4 °F 26.1 °F 33.8 °F 87% 30.06 in 10.0 mi North 24.2 mph 31.1 mph N/A   Overcast